This is the latest recevied weather packets stored in our database for station/object APPOWX. If no packets are shown the sender has not sent any weather packets the latest 10 day(s).
| Time | Temp. | Humidity | Pressure | Rain* | Wind** | Luminosity | Snow |
|---|---|---|---|---|---|---|---|
| 1777308238 | 17.78° C | 46% | 1026.6 hPa | 0 mm | - | - | - |
| 1777308178 | 17.22° C | 48% | 1026.4 hPa | 0 mm | - | - | - |
| 1777308118 | 17.22° C | 44% | 1026.6 hPa | 0 mm | - | - | - |
| 1777308057 | 17.22° C | 45% | 1026.5 hPa | 0 mm | - | - | - |
| 1777307997 | 17.22° C | 47% | 1026.6 hPa | 0 mm | - | - | - |
| 1777307937 | 17.22° C | 44% | 1026.5 hPa | 0 mm | - | - | - |
| 1777307878 | 17.22° C | 47% | 1026.5 hPa | 0 mm | - | - | - |
| 1777307817 | 17.22° C | 48% | 1026.6 hPa | 0 mm | - | - | - |
| 1777307757 | 17.22° C | 55% | 1026.6 hPa | 0 mm | - | - | - |
| 1777307697 | 17.78° C | 48% | 1026.4 hPa | 0 mm | - | - | - |
| 1777307637 | 17.78° C | 49% | 1026.6 hPa | 0 mm | - | - | - |
| 1777307577 | 17.78° C | 51% | 1026.6 hPa | 0 mm | - | - | - |
| 1777307517 | 17.78° C | 45% | 1026.5 hPa | 0 mm | - | - | - |
| 1777307456 | 18.33° C | 48% | 1026.3 hPa | 0 mm | - | - | - |
| 1777307397 | 18.33° C | 48% | 1026.5 hPa | 0 mm | - | - | - |
| 1777307337 | 17.78° C | 48% | 1026.4 hPa | 0 mm | - | - | - |
| 1777307277 | 17.78° C | 47% | 1026.5 hPa | 0 mm | - | - | - |
| 1777307217 | 18.33° C | 48% | 1026.5 hPa | 0 mm | - | - | - |
| 1777307157 | 18.33° C | 49% | 1026.5 hPa | 0 mm | - | - | - |
| 1777307096 | 17.78° C | 55% | 1026.2 hPa | 0 mm | - | - | - |
| 1777307037 | 17.78° C | 58% | 1026.4 hPa | 0 mm | - | - | - |
| 1777306977 | 17.78° C | 52% | 1026.5 hPa | 0 mm | - | - | - |
| 1777306916 | 17.78° C | 52% | 1026.5 hPa | 0 mm | - | - | - |
| 1777306856 | 17.22° C | 50% | 1026.4 hPa | 0 mm | - | - | - |
| 1777306796 | 17.78° C | 53% | 1026.5 hPa | 0 mm | - | - | - |
* Rain latest hour (hover to see other rain measurements)
** Current wind speed in m/s (hover to see current wind gust speed)